Time,TemperatureF,DewpointF,PressureIn,WindDirection,WindDirectionDegrees,WindSpeedMPH,WindSpeedGustMPH,Humidity,HourlyPrecipIn,Conditions,Clouds,dailyrainin,SoftwareType,DateUTC
2013-04-05 00:01:00,40.4,23.2,29.84,West,281,0.0,1.0,50,0.00,,---,0.00,VWS V14.01,2013-04-05 06:01:00,
2013-04-05 00:11:00,40.5,24.7,29.80,West,281,0.0,7.0,53,0.00,,---,0.00,VWS V14.01,2013-04-05 06:11:00,
2013-04-05 00:31:00,39.7,24.9,29.80,West,281,0.0,0.0,55,0.00,,---,0.00,VWS V14.01,2013-04-05 06:31:00,
2013-04-05 00:51:00,38.6,25.1,29.80,West,281,5.0,7.0,58,0.00,,---,0.00,VWS V14.01,2013-04-05 06:51:00,
2013-04-05 01:01:00,38.6,25.5,29.80,West,281,4.0,7.0,59,0.00,,---,0.00,VWS V14.01,2013-04-05 07:01:00,
2013-04-05 01:11:00,39.6,24.8,29.78,West,281,0.0,7.0,55,0.00,,---,0.00,VWS V14.01,2013-04-05 07:11:00,
2013-04-05 01:21:00,40.9,23.7,29.76,West,281,5.0,7.0,50,0.00,,---,0.00,VWS V14.01,2013-04-05 07:21:00,
2013-04-05 01:31:00,44.6,21.8,29.74,West,281,9.0,11.0,40,0.00,,---,0.00,VWS V14.01,2013-04-05 07:31:00,
2013-04-05 01:41:00,46.6,21.1,29.70,WNW,282,7.0,13.0,36,0.00,,---,0.00,VWS V14.01,2013-04-05 07:41:00,
2013-04-05 02:21:00,47.7,20.7,29.67,WSW,243,5.0,13.0,34,0.00,,---,0.00,VWS V14.01,2013-04-05 08:21:00,
2013-04-05 02:31:00,44.3,20.3,29.70,WSW,244,4.0,9.0,38,0.00,,---,0.00,VWS V14.01,2013-04-05 08:31:00,
2013-04-05 02:41:00,45.3,19.3,29.69,WSW,246,6.0,10.0,35,0.00,,---,0.00,VWS V14.01,2013-04-05 08:41:00,
2013-04-05 02:51:00,44.8,18.8,29.68,WSW,248,7.0,9.0,35,0.00,,---,0.00,VWS V14.01,2013-04-05 08:51:00,
2013-04-05 03:11:00,44.3,19.7,29.70,WSW,254,5.0,10.0,37,0.00,,---,0.00,VWS V14.01,2013-04-05 09:11:00,
2013-04-05 03:21:00,44.6,19.3,29.68,West,262,5.0,10.0,36,0.00,,---,0.00,VWS V14.01,2013-04-05 09:21:00,
2013-04-05 03:31:00,44.7,20.0,29.67,West,263,0.0,11.0,37,0.00,,---,0.00,VWS V14.01,2013-04-05 09:31:00,
2013-04-05 03:41:00,45.0,19.7,29.67,West,277,7.0,13.0,36,0.00,,---,0.00,VWS V14.01,2013-04-05 09:41:00,
2013-04-05 04:01:00,46.7,17.7,29.65,WNW,288,14.0,18.0,31,0.00,,---,0.00,VWS V14.01,2013-04-05 10:01:00,
2013-04-05 04:31:00,40.3,20.1,29.70,NNW,327,7.0,16.0,44,0.00,,---,0.00,VWS V14.01,2013-04-05 10:31:00,
2013-04-05 04:41:00,37.4,20.5,29.74,NNW,327,0.0,10.0,50,0.00,,---,0.00,VWS V14.01,2013-04-05 10:41:00,
2013-04-05 04:51:00,37.1,20.7,29.74,NNW,334,4.0,11.0,51,0.00,,---,0.00,VWS V14.01,2013-04-05 10:51:00,
2013-04-05 05:11:00,37.8,20.4,29.75,NNW,334,0.0,11.0,49,0.00,,---,0.00,VWS V14.01,2013-04-05 11:11:00,
2013-04-05 05:21:00,37.7,20.3,29.75,NNW,336,7.0,10.0,49,0.00,,---,0.00,VWS V14.01,2013-04-05 11:21:00,
2013-04-05 05:31:00,36.7,20.8,29.75,NNW,337,8.0,11.0,52,0.00,,---,0.00,VWS V14.01,2013-04-05 11:31:00,
2013-04-05 05:41:00,36.8,19.9,29.75,NNW,337,5.0,10.0,50,0.00,,---,0.00,VWS V14.01,2013-04-05 11:41:00,
2013-04-05 05:51:00,37.5,20.1,29.75,NNW,337,6.0,9.0,49,0.00,,---,0.00,VWS V14.01,2013-04-05 11:51:00,
2013-04-05 06:01:00,36.8,19.5,29.75,NNW,337,0.0,8.0,49,0.00,,---,0.00,VWS V14.01,2013-04-05 12:01:00,
2013-04-05 06:11:00,36.4,20.0,29.76,NNW,337,7.0,10.0,51,0.00,,---,0.00,VWS V14.01,2013-04-05 12:11:00,
2013-04-05 06:21:00,36.1,20.2,29.77,NNW,337,5.0,12.0,52,0.00,,---,0.00,VWS V14.01,2013-04-05 12:21:00,
2013-04-05 06:31:00,36.4,20.0,29.76,NNW,344,8.0,13.0,51,0.00,,---,0.00,VWS V14.01,2013-04-05 12:31:00,
2013-04-05 06:41:00,36.6,19.7,29.75,NNW,336,9.0,14.0,50,0.00,,---,0.00,VWS V14.01,2013-04-05 12:41:00,
2013-04-05 06:51:00,37.1,19.2,29.76,NNW,329,6.0,13.0,48,0.00,,---,0.00,VWS V14.01,2013-04-05 12:51:00,
2013-04-05 07:01:00,38.0,19.6,29.75,NNW,329,9.0,11.0,47,0.00,,---,0.00,VWS V14.01,2013-04-05 13:01:00,
2013-04-05 07:11:00,37.7,19.8,29.79,NNW,329,0.0,9.0,48,0.00,,---,0.00,VWS V14.01,2013-04-05 13:11:00,
2013-04-05 07:21:00,37.5,19.6,29.79,NNW,330,4.0,7.0,48,0.00,,---,0.00,VWS V14.01,2013-04-05 13:21:00,
2013-04-05 07:31:00,35.9,20.5,29.80,NNW,335,6.0,10.0,53,0.00,,---,0.00,VWS V14.01,2013-04-05 13:31:00,
2013-04-05 07:41:00,35.7,20.3,29.80,NNW,334,0.0,7.0,53,0.00,,---,0.00,VWS V14.01,2013-04-05 13:41:00,
2013-04-05 08:01:00,39.3,20.3,29.78,NNW,337,0.0,9.0,46,0.00,,---,0.00,VWS V14.01,2013-04-05 14:01:00,
2013-04-05 08:11:00,40.9,21.7,29.77,NNW,337,0.0,1.0,46,0.00,,---,0.00,VWS V14.01,2013-04-05 14:11:00,
2013-04-05 08:41:00,42.7,20.7,29.74,NNW,333,1.0,9.0,41,0.00,,---,0.00,VWS V14.01,2013-04-05 14:41:00,
2013-04-05 09:01:00,46.2,22.0,29.72,NNW,333,1.0,5.0,38,0.00,,---,0.00,VWS V14.01,2013-04-05 15:01:00,
2013-04-05 09:11:00,47.2,21.0,29.74,NNW,333,0.0,3.0,35,0.00,,---,0.00,VWS V14.01,2013-04-05 15:11:00,
2013-04-05 09:41:00,48.4,22.7,29.74,NNW,331,1.0,4.0,36,0.00,,---,0.00,VWS V14.01,2013-04-05 15:41:00,
2013-04-05 09:51:00,48.8,22.4,29.71,NNW,329,3.0,5.0,35,0.00,,---,0.00,VWS V14.01,2013-04-05 15:51:00,
2013-04-05 10:01:00,49.3,22.8,29.71,NNW,328,1.0,7.0,35,0.00,,---,0.00,VWS V14.01,2013-04-05 16:01:00,
2013-04-05 10:11:00,51.0,22.2,29.69,NNW,329,2.0,4.0,32,0.00,,---,0.00,VWS V14.01,2013-04-05 16:11:00,
2013-04-05 10:31:00,53.3,21.9,29.66,ESE,117,3.0,9.0,29,0.00,,---,0.00,VWS V14.01,2013-04-05 16:31:00,
2013-04-05 10:41:00,53.6,21.3,29.64,ESE,102,2.0,8.0,28,0.00,,---,0.00,VWS V14.01,2013-04-05 16:41:00,
2013-04-05 10:51:00,53.9,20.7,29.65,ESE,102,0.0,3.0,27,0.00,,---,0.00,VWS V14.01,2013-04-05 16:51:00,
2013-04-05 11:11:00,54.6,22.2,29.65,SSW,207,11.0,16.0,28,0.00,,---,0.00,VWS V14.01,2013-04-05 17:11:00,
2013-04-05 11:21:00,56.2,21.8,29.62,WSW,250,19.0,29.0,26,0.00,,---,0.00,VWS V14.01,2013-04-05 17:21:00,
2013-04-05 11:51:00,55.7,20.4,29.64,SW,232,2.0,26.0,25,0.00,,---,0.00,VWS V14.01,2013-04-05 17:51:00,
2013-04-05 12:01:00,56.4,22.0,29.64,SW,215,20.0,33.0,26,0.00,,---,0.00,VWS V14.01,2013-04-05 18:01:00,
2013-04-05 12:11:00,56.8,20.4,29.64,South,180,19.0,29.0,24,0.00,,---,0.00,VWS V14.01,2013-04-05 18:11:00,
2013-04-05 12:21:00,56.5,20.2,29.63,West,276,1.0,26.0,24,0.00,,---,0.00,VWS V14.01,2013-04-05 18:21:00,
2013-04-05 12:31:00,58.1,20.5,29.60,SW,235,3.0,10.0,23,0.00,,---,0.00,VWS V14.01,2013-04-05 18:31:00,
2013-04-05 12:41:00,56.9,18.5,29.61,SSW,203,17.0,40.0,22,0.00,,---,0.00,VWS V14.01,2013-04-05 18:41:00,
2013-04-05 12:51:00,57.2,19.8,29.60,West,273,11.0,23.0,23,0.00,,---,0.00,VWS V14.01,2013-04-05 18:51:00,
2013-04-05 13:01:00,56.6,19.2,29.59,WNW,291,3.0,30.0,23,0.00,,---,0.00,VWS V14.01,2013-04-05 19:01:00,
2013-04-05 13:11:00,56.7,20.3,29.53,SE,139,5.0,15.0,24,0.00,,---,0.00,VWS V14.01,2013-04-05 19:11:00,
2013-04-05 13:21:00,57.6,20.1,29.51,West,272,17.0,28.0,23,0.00,,---,0.00,VWS V14.01,2013-04-05 19:21:00,
2013-04-05 13:31:00,56.8,20.4,29.53,WNW,294,11.0,28.0,24,0.00,,---,0.00,VWS V14.01,2013-04-05 19:31:00,
2013-04-05 13:41:00,57.4,22.8,29.52,West,272,19.0,26.0,26,0.00,,---,0.00,VWS V14.01,2013-04-05 19:41:00,
2013-04-05 13:51:00,57.2,22.6,29.52,SW,223,20.0,32.0,26,0.00,,---,0.00,VWS V14.01,2013-04-05 19:51:00,
2013-04-05 14:01:00,57.3,23.6,29.52,WSW,247,18.0,27.0,27,0.00,,---,0.00,VWS V14.01,2013-04-05 20:01:00,
2013-04-05 14:11:00,57.3,24.5,29.52,WSW,250,20.0,33.0,28,0.00,,---,0.00,VWS V14.01,2013-04-05 20:11:00,
2013-04-05 14:21:00,57.0,24.2,29.51,West,271,14.0,25.0,28,0.00,,---,0.00,VWS V14.01,2013-04-05 20:21:00,
2013-04-05 14:31:00,56.4,23.7,29.52,SW,234,3.0,25.0,28,0.00,,---,0.00,VWS V14.01,2013-04-05 20:31:00,
2013-04-05 14:41:00,56.7,24.0,29.50,WSW,244,10.0,30.0,28,0.00,,---,0.00,VWS V14.01,2013-04-05 20:41:00,
2013-04-05 14:51:00,57.0,24.2,29.49,SSW,194,17.0,26.0,28,0.00,,---,0.00,VWS V14.01,2013-04-05 20:51:00,
2013-04-05 15:11:00,57.2,25.2,29.48,WSW,242,16.0,23.0,29,0.00,,---,0.00,VWS V14.01,2013-04-05 21:11:00,
2013-04-05 15:31:00,56.3,23.6,29.47,SW,229,5.0,21.0,28,0.00,,---,0.00,VWS V14.01,2013-04-05 21:31:00,
2013-04-05 15:41:00,55.5,24.6,29.48,West,281,13.0,25.0,30,0.00,,---,0.00,VWS V14.01,2013-04-05 21:41:00,
2013-04-05 16:01:00,52.5,25.7,29.51,SSW,198,26.0,33.0,35,0.00,,---,0.00,VWS V14.01,2013-04-05 22:01:00,
2013-04-05 16:21:00,49.3,29.4,29.60,SW,217,22.0,31.0,46,0.00,,---,0.00,VWS V14.01,2013-04-05 22:21:00,
2013-04-05 16:41:00,52.3,29.3,29.57,SW,218,3.0,20.0,41,0.00,,---,0.00,VWS V14.01,2013-04-05 22:41:00,
2013-04-05 17:01:00,53.6,25.9,29.57,West,263,17.0,20.0,34,0.00,,---,0.00,VWS V14.01,2013-04-05 23:01:00,
2013-04-05 17:21:00,53.2,27.6,29.58,West,275,13.0,18.0,37,0.00,,---,0.00,VWS V14.01,2013-04-05 23:21:00,
2013-04-05 17:31:00,51.3,28.4,29.60,NW,314,11.0,17.0,41,0.00,,---,0.00,VWS V14.01,2013-04-05 23:31:00,
2013-04-05 17:41:00,50.6,28.4,29.60,NNW,338,4.0,19.0,42,0.00,,---,0.00,VWS V14.01,2013-04-05 23:41:00,
2013-04-05 17:51:00,51.4,27.3,29.60,NW,323,18.0,20.0,39,0.00,,---,0.00,VWS V14.01,2013-04-05 23:51:00,
2013-04-05 18:01:00,51.5,26.8,29.59,North,351,9.0,20.0,38,0.00,,---,0.00,VWS V14.01,2013-04-06 00:01:00,
2013-04-05 18:21:00,50.9,25.6,29.60,WNW,291,13.0,24.0,37,0.00,,---,0.00,VWS V14.01,2013-04-06 00:21:00,
2013-04-05 18:41:00,49.2,26.5,29.61,NW,306,13.0,14.0,41,0.00,,---,0.00,VWS V14.01,2013-04-06 00:41:00,
2013-04-05 19:01:00,48.4,28.0,29.64,WSW,257,20.0,31.0,45,0.00,,---,0.00,VWS V14.01,2013-04-06 01:01:00,
2013-04-05 19:11:00,43.9,30.5,29.67,WSW,251,15.0,25.0,59,0.00,,---,0.00,VWS V14.01,2013-04-06 01:11:00,
2013-04-05 19:21:00,43.3,31.6,29.70,SW,217,10.0,18.0,63,0.00,,---,0.00,VWS V14.01,2013-04-06 01:21:00,
2013-04-05 19:31:00,42.2,32.4,29.71,SSW,200,12.0,26.0,68,0.00,,---,0.00,VWS V14.01,2013-04-06 01:31:00,
2013-04-05 19:41:00,41.1,32.8,29.70,WNW,290,4.0,12.0,72,0.00,,---,0.00,VWS V14.01,2013-04-06 01:41:00,
2013-04-05 19:51:00,40.9,31.9,29.70,WNW,290,0.0,7.0,70,0.00,,---,0.00,VWS V14.01,2013-04-06 01:51:00,
2013-04-05 20:01:00,39.8,32.9,29.71,NW,313,10.0,19.0,76,0.00,,---,0.00,VWS V14.01,2013-04-06 02:01:00,
2013-04-05 20:11:00,39.9,33.3,29.63,NNW,340,8.0,16.0,77,0.00,,---,0.00,VWS V14.01,2013-04-06 02:11:00,
2013-04-05 20:21:00,40.7,31.7,29.64,NW,306,15.0,21.0,70,0.00,,---,0.00,VWS V14.01,2013-04-06 02:21:00,
2013-04-05 20:31:00,40.9,33.3,29.66,WNW,296,7.0,16.0,74,0.00,,---,0.00,VWS V14.01,2013-04-06 02:31:00,
2013-04-05 20:41:00,41.1,32.8,29.68,WNW,298,18.0,21.0,72,0.00,,---,0.00,VWS V14.01,2013-04-06 02:41:00,
2013-04-05 20:51:00,39.1,32.8,29.70,West,276,6.0,21.0,78,0.02,,---,0.02,VWS V14.01,2013-04-06 02:51:00,
2013-04-05 21:01:00,38.2,32.9,29.70,West,276,0.0,10.0,81,0.03,,---,0.03,VWS V14.01,2013-04-06 03:01:00,
2013-04-05 21:21:00,37.6,33.8,29.68,West,276,0.0,0.0,86,0.03,,---,0.03,VWS V14.01,2013-04-06 03:21:00,
2013-04-05 21:41:00,37.7,33.9,29.68,NNW,344,10.0,10.0,86,0.03,,---,0.03,VWS V14.01,2013-04-06 03:41:00,
2013-04-05 21:51:00,37.6,33.8,29.68,NNW,344,0.0,12.0,86,0.03,,---,0.03,VWS V14.01,2013-04-06 03:51:00,
2013-04-05 22:01:00,37.2,33.4,29.68,NNW,344,0.0,0.0,86,0.01,,---,0.03,VWS V14.01,2013-04-06 04:01:00,
2013-04-05 22:21:00,36.5,33.6,29.65,NNW,344,0.0,0.0,89,0.00,,---,0.03,VWS V14.01,2013-04-06 04:21:00,
2013-04-05 22:31:00,36.7,33.8,29.65,NNW,344,0.0,0.0,89,0.00,,---,0.03,VWS V14.01,2013-04-06 04:31:00,
2013-04-05 22:41:00,37.1,34.2,29.66,NNW,344,0.0,0.0,89,0.00,,---,0.03,VWS V14.01,2013-04-06 04:41:00,
2013-04-05 22:51:00,37.7,34.2,29.66,NNW,344,0.0,0.0,87,0.00,,---,0.03,VWS V14.01,2013-04-06 04:51:00,
2013-04-05 23:01:00,37.5,34.0,29.65,NNW,344,0.0,0.0,87,0.01,,---,0.04,VWS V14.01,2013-04-06 05:01:00,
2013-04-05 23:31:00,36.2,33.6,29.64,NNW,346,0.0,0.0,90,0.02,,---,0.05,VWS V14.01,2013-04-06 05:31:00,
2013-04-05 23:41:00,35.9,33.3,29.64,NNW,346,0.0,0.0,90,0.02,,---,0.05,VWS V14.01,2013-04-06 05:41:00,
2013-04-05 23:51:00,35.9,33.3,29.64,NNW,347,0.0,0.0,90,0.02,,---,0.05,VWS V14.01,2013-04-06 05:51:00,